Showing default

WREN-1, 60478

Orbit data source: Space-Track

WREN-1, 60478 is a payload satellite owned by C3S (HU) in SSO that was launched on Fri, 16 Aug 2024 UTC via an FALCON 9 launch vehicle from the Air Force Western Test Range (AFWTR). Payload-class satellites include a variety of spacecraft equipped with specific instruments for various scientific and technological missions. These include communications satellites like Starlink; space stations such as the ISS; scientific satellites like the Hubble; Earth observation satellites from companies like Planet Labs, Umbra, and HawkEye 360; GPS; miniature CubeSats for education and research; and military/defense satellites.

Loading next visibility...
Identifier
60478, 2024-149L
Orbit
SSO
Country
Flag of HUHU / HUN
Related business
Manufacturer
C3S
Mission
Operational Commercial Technology
Bus & Motor
CUBESAT 6U, Unknown motor
Mass
~10 kg wet, ~10 kg dry
Launch date (UTC)
2024-08-16 (2 years ago)
Launch vehicle
FALCON 9
Launch site
Air Force Western Test Range (AFWTR)
Object type
Payload
Rocket body
Debris
Shape & HBR
Box + 2 Pan, 0.4 m
Radar Cross Section
0.115 m², Medium (>0.1 m² and < 1m²)

Expand to show TLE details & history
Last TLE update: 1 day ago

TLE from 1 day ago
0 WREN-1
1 60478U 24149L   26174.17075455  .00016912  00000-0  40162-3 0  9994
2 60478  97.3763 258.3468 0003726 221.9158 138.1804 15.41753332103243
Epoch: 2026-06-23T04:05Z
TLE epoch observation values (Epoch: 2026-06-23T04:05:53.193Z)
Latitude
-0.00002°
Longitude
-74.47099°
Altitude
445.949 km
Speed
7.644 km/s
True Right ascension
17h 13m 23s
True Declination
0° 00' 00"
Sunlit
Object was in full shadow at epoch
Visualization orbit readout
Latitude
Unknown
Longitude
Unknown
Altitude
Unknown
Speed
Unknown
Apparent Right ascension
Unknown
Apparent Declination
Unknown
Sunlit
N/A
Visualization observer readout
Local Sidereal Time
16:55:01
Azimuth
Unknown
Elevation
Unknown
Doppler factor
Unknown
Orbital elements
Apogee altitude
440.41 km
Perigee altitude
435.33 km
Semi-major axis
6,816.007 km
Eccentricity
0.00037
Inclination
97.3763°
RAAN
258.3468°
Arg. of periapsis
221.9158°
True anomaly
138.20886°
Mean anomaly
138.1804°
Eccentric anomaly
138.19463°
Mean motion
3.85699 °/min
Orbital period
93.34 mins
BSTAR
0.00040162
Loading maneuver chart data...
Computing Atmospheric mass density...

Documentation

Showing up to 5 results
|